FW7817 Weather Reports


Display with metric or nautical units.
time (UTC)temp
F
wind
direction
speed
MPH
gust
MPH
rain 1hr
in
rain 24hr
in
rain mn
in
humidity
%
barometer
mb
20260906025759 85 111 0.0 2.0 0.00 0.00 0.00 65 1014.4
20260906025256 85 111 0.0 2.0 0.00 0.00 0.00 66 1014.4
20260906024754 85 111 1.0 3.0 0.00 0.00 0.00 66 1014.3
20260906024253 85 111 0.0 3.0 0.00 0.00 0.00 65 1014.2
20260906023253 86 204 0.0 0.0 0.00 0.00 0.00 64 1013.9
20260906022752 86 204 0.0 0.0 0.00 0.00 0.00 64 1013.9
20260906022251 86 204 0.0 0.0 0.00 0.00 0.00 63 1013.8
20260906021751 86 204 0.0 0.0 0.00 0.00 0.00 63 1013.6
20260906021247 86 204 0.0 0.0 0.00 0.00 0.00 63 1013.6
20260906020748 87 204 0.0 0.0 0.00 0.00 0.00 62 1013.7
20260906020247 87 204 0.0 0.0 0.00 0.00 0.00 62 1013.5
20260906015747 87 204 0.0 0.0 0.00 0.00 0.00 62 1013.5
20260906015248 87 204 0.0 0.0 0.00 0.00 0.00 62 1013.5
20260906014748 87 204 0.0 0.0 0.00 0.00 0.00 62 1013.4
20260906014247 87 204 0.0 0.0 0.00 0.00 0.00 62 1013.4
20260906013247 87 204 0.0 0.0 0.00 0.00 0.00 62 1013.4
20260906011748 88 204 0.0 0.0 0.00 0.00 0.00 59 1013.2
20260906011247 89 204 0.0 0.0 0.00 0.00 0.00 58 1013.2
20260906010748 89 204 0.0 0.0 0.00 0.00 0.00 57 1013.2
20260906010248 90 204 0.0 0.0 0.00 0.00 0.00 56 1013.0
20260906005748 90 204 0.0 0.0 0.00 0.00 0.00 55 1013.0
20260906005247 90 204 0.0 0.0 0.00 0.00 0.00 54 1013.0
20260906004745 91 204 0.0 0.0 0.00 0.00 0.00 54 1013.0
20260906004239 91 204 0.0 0.0 0.00 0.00 0.00 54 1013.0
20260906003739 91 204 0.0 0.0 0.00 0.00 0.00 53 1013.0
20260906003237 91 204 0.0 0.0 0.00 0.00 0.00 53 1013.2
20260906002737 92 204 0.0 0.0 0.00 0.00 0.00 53 1012.9
20260906002240 92 204 0.0 1.0 0.00 0.00 0.00 52 1012.9
20260906001738 92 204 0.0 2.0 0.00 0.00 0.00 51 1012.9
20260906000736 93 204 0.0 0.0 0.00 0.00 0.00 50 1013.0
20260906000234 93 204 0.0 0.0 0.00 0.00 0.00 50 1013.0
20260905235734 94 204 0.0 0.0 0.00 0.00 0.00 49 1013.2
20260905235233 94 204 0.0 0.0 0.00 0.00 0.00 49 1013.2
20260905234732 94 204 0.0 0.0 0.00 0.00 0.00 48 1013.2
20260905233729 95 204 0.0 0.0 0.00 0.00 0.00 47 1013.2
20260905233226 95 204 0.0 1.0 0.00 0.00 0.00 46 1013.3
20260905232724 96 204 0.0 1.0 0.00 0.00 0.00 47 1013.2
20260905232222 96 204 0.0 1.0 0.00 0.00 0.00 46 1013.2
20260905231722 96 204 0.0 1.0 0.00 0.00 0.00 45 1013.2
20260905230720 97 203 0.0 1.0 0.00 0.00 0.00 44 1013.0
20260905230219 97 203 0.0 4.0 0.00 0.00 0.00 44 1013.0
20260905225713 98 202 1.0 4.0 0.00 0.00 0.00 44 1013.0
20260905224701 98 132 2.0 5.0 0.00 0.00 0.00 43 1013.0
20260905224155 98 161 1.0 5.0 0.00 0.00 0.00 41 1012.9
20260905223648 99 140 1.0 4.0 0.00 0.00 0.00 42 1012.9
20260905223142 99 137 1.0 5.0 0.00 0.00 0.00 41 1013.2
20260905222636 99 137 1.0 5.0 0.00 0.00 0.00 42 1013.3
20260905222131 100 102 1.0 3.0 0.00 0.00 0.00 40 1013.3
20260905221624 100 264 1.0 3.0 0.00 0.00 0.00 40 1013.3
20260905221118 101 255 1.0 3.0 0.00 0.00 0.00 40 1013.3
20260905220613 100 145 1.0 4.0 0.00 0.00 0.00 40 1013.5
20260905215601 101 185 1.0 5.0 0.00 0.00 0.00 41 1013.4
20260905214551 100 196 2.0 5.0 0.00 0.00 0.00 42 1013.4
20260905214043 100 85 2.0 6.0 0.00 0.00 0.00 41 1013.5
20260905213537 100 84 2.0 6.0 0.00 0.00 0.00 40 1013.5
20260905213031 101 146 1.0 5.0 0.00 0.00 0.00 40 1013.4
20260905212525 100 257 1.0 4.0 0.00 0.00 0.00 41 1013.5
20260905212023 101 173 2.0 8.0 0.00 0.00 0.00 41 1013.6
20260905211523 100 116 3.0 9.0 0.00 0.00 0.00 41 1013.6
20260905211022 100 123 2.0 9.0 0.00 0.00 0.00 40 1013.6
20260905210521 101 144 1.0 5.0 0.00 0.00 0.00 40 1013.8
20260905210021 100 265 1.0 4.0 0.00 0.00 0.00 39 1013.8
20260905205521 101 239 2.0 5.0 0.00 0.00 0.00 40 1013.9
20260905205022 100 159 2.0 6.0 0.00 0.00 0.00 41 1014.0
20260905204521 100 81 1.0 6.0 0.00 0.00 0.00 40 1014.1
20260905204021 100 150 1.0 6.0 0.00 0.00 0.00 40 1014.1
20260905203518 100 258 2.0 6.0 0.00 0.00 0.00 42 1014.2
20260905203016 100 133 3.0 7.0 0.00 0.00 0.00 41 1014.2
20260905202516 100 161 3.0 7.0 0.00 0.00 0.00 41 1014.3
20260905202017 100 90 2.0 8.0 0.00 0.00 0.00 42 1014.3
20260905201017 100 88 3.0 9.0 0.00 0.00 0.00 42 1014.4
20260905200017 100 161 3.0 11.0 0.00 0.00 0.00 41 1014.6
20260905195517 100 169 2.0 11.0 0.00 0.00 0.00 41 1014.6
20260905195010 99 177 2.0 6.0 0.00 0.00 0.00 42 1014.6
20260905193958 100 126 4.0 10.0 0.00 0.00 0.00 42 1014.7
20260905192947 100 136 3.0 7.0 0.00 0.00 0.00 41 1014.8
20260905192441 100 123 3.0 7.0 0.00 0.00 0.00 42 1014.9
20260905191939 100 165 3.0 8.0 0.00 0.00 0.00 42 1014.9
20260905191439 100 140 2.0 8.0 0.00 0.00 0.00 42 1015.0
20260905190939 100 271 2.0 7.0 0.00 0.00 0.00 43 1015.1
20260905190439 100 167 2.0 7.0 0.00 0.00 0.00 43 1015.1
20260905185937 100 101 3.0 7.0 0.00 0.00 0.00 42 1015.0
20260905185437 100 163 3.0 9.0 0.00 0.00 0.00 42 1015.1
20260905184935 100 86 2.0 9.0 0.00 0.00 0.00 42 1015.0
20260905184435 100 155 1.0 6.0 0.00 0.00 0.00 44 1015.1
20260905183433 99 146 1.0 7.0 0.00 0.00 0.00 46 1015.3
20260905182933 98 245 1.0 7.0 0.00 0.00 0.00 48 1015.5
20260905182432 98 161 1.0 8.0 0.00 0.00 0.00 48 1015.7
20260905181933 98 150 2.0 8.0 0.00 0.00 0.00 48 1015.7
20260905180933 98 160 3.0 9.0 0.00 0.00 0.00 48 1015.8
20260905180433 99 78 3.0 9.0 0.00 0.00 0.00 45 1015.8
20260905175933 98 128 2.0 8.0 0.00 0.00 0.00 48 1015.9
20260905174433 98 153 2.0 8.0 0.00 0.00 0.00 47 1016.1
20260905173933 97 123 3.0 7.0 0.00 0.00 0.00 50 1016.1
20260905173432 97 145 2.0 7.0 0.00 0.00 0.00 50 1016.1
20260905172932 98 125 1.0 6.0 0.00 0.00 0.00 50 1016.3
20260905172433 97 158 2.0 6.0 0.00 0.00 0.00 52 1016.3
20260905171933 97 153 2.0 7.0 0.00 0.00 0.00 52 1016.3
20260905171432 96 117 2.0 7.0 0.00 0.00 0.00 51 1016.3
20260905170928 96 267 2.0 7.0 0.00 0.00 0.00 51 1016.5
20260905170428 96 142 3.0 7.0 0.00 0.00 0.00 53 1016.5
20260905165929 96 154 2.0 6.0 0.00 0.00 0.00 53 1016.5
20260905165427 95 161 2.0 6.0 0.00 0.00 0.00 55 1016.5
20260905164926 95 159 3.0 6.0 0.00 0.00 0.00 54 1016.5
20260905164427 95 143 2.0 6.0 0.00 0.00 0.00 55 1016.5
20260905163926 94 117 2.0 7.0 0.00 0.00 0.00 57 1016.5
20260905163427 94 163 2.0 7.0 0.00 0.00 0.00 56 1016.5
20260905162426 93 142 3.0 7.0 0.00 0.00 0.00 57 1016.5
20260905161920 93 151 3.0 6.0 0.00 0.00 0.00 57 1016.5
20260905161414 93 158 3.0 5.0 0.00 0.00 0.00 58 1016.5
20260905160907 93 134 3.0 7.0 0.00 0.00 0.00 58 1016.5
20260905160401 92 154 2.0 7.0 0.00 0.00 0.00 57 1016.3
20260905155902 92 178 2.0 5.0 0.00 0.00 0.00 61 1016.3
20260905155402 92 164 2.0 5.0 0.00 0.00 0.00 59 1016.3
20260905154903 91 152 2.0 4.0 0.00 0.00 0.00 63 1016.2
20260905154400 91 119 2.0 5.0 0.00 0.00 0.00 61 1016.2
20260905153858 90 132 2.0 5.0 0.00 0.00 0.00 62 1016.1
20260905152857 89 119 2.0 5.0 0.00 0.00 0.00 62 1016.0
20260905152357 89 127 2.0 5.0 0.00 0.00 0.00 63 1015.9
20260905151354 89 140 1.0 3.0 0.00 0.00 0.00 63 1015.8
20260905150854 88 137 1.0 5.0 0.00 0.00 0.00 64 1015.9
20260905150352 87 140 2.0 5.0 0.00 0.00 0.00 66 1015.9
20260905145853 87 160 2.0 4.0 0.00 0.00 0.00 65 1015.8
20260905145352 86 152 2.0 5.0 0.00 0.00 0.00 66 1015.8
20260905144853 86 155 2.0 6.0 0.00 0.00 0.00 66 1015.7
20260905144352 86 143 2.0 6.0 0.00 0.00 0.00 66 1015.7
20260905143850 85 163 2.0 5.0 0.00 0.00 0.00 67 1015.7
20260905143350 85 142 2.0 5.0 0.00 0.00 0.00 66 1015.7
20260905142844 85 151 1.0 5.0 0.00 0.00 0.00 67 1015.7
20260905142338 85 76 1.0 5.0 0.00 0.00 0.00 67 1015.6
20260905141832 84 155 1.0 5.0 0.00 0.00 0.00 68 1015.6
20260905141325 84 147 1.0 5.0 0.00 0.00 0.00 68 1015.7
20260905140819 83 126 0.0 2.0 0.00 0.00 0.00 68 1015.6
20260905140314 83 131 0.0 1.0 0.00 0.00 0.00 69 1015.5
20260905135808 83 131 0.0 2.0 0.00 0.00 0.00 70 1015.7
20260905135306 83 131 1.0 3.0 0.00 0.00 0.00 70 1015.6
20260905134756 82 130 1.0 3.0 0.00 0.00 0.00 71 1015.5
20260905134250 82 149 1.0 3.0 0.00 0.00 0.00 71 1015.5
20260905133744 81 146 1.0 3.0 0.00 0.00 0.00 73 1015.5
20260905133237 80 147 1.0 4.0 0.00 0.00 0.00 74 1015.4
20260905132731 80 228 0.0 4.0 0.00 0.00 0.00 74 1015.4
20260905132226 79 200 1.0 3.0 0.00 0.00 0.00 75 1015.3
20260905131720 78 201 1.0 3.0 0.00 0.00 0.00 77 1015.3
20260905131214 77 173 0.0 2.0 0.00 0.00 0.00 78 1015.2
20260905130707 77 238 0.0 2.0 0.00 0.00 0.00 79 1015.1
20260905125655 76 261 0.0 0.0 0.00 0.00 0.00 80 1015.1
20260905124644 75 261 0.0 0.0 0.00 0.00 0.00 80 1015.1
20260905124138 75 261 0.0 1.0 0.00 0.00 0.00 80 1015.0
20260905123632 75 261 0.0 1.0 0.00 0.00 0.00 80 1014.9
20260905123125 75 261 0.0 0.0 0.00 0.00 0.00 80 1014.9
20260905122113 75 261 0.0 0.0 0.00 0.00 0.00 79 1014.8
20260905121608 75 261 0.0 0.0 0.00 0.00 0.00 79 1014.8
20260905121101 75 261 0.0 1.0 0.00 0.00 0.00 79 1014.7
20260905120556 76 261 0.0 1.0 0.00 0.00 0.00 79 1014.6
20260905120050 76 261 0.0 0.0 0.00 0.00 0.00 78 1014.5
20260905115544 76 261 0.0 0.0 0.00 0.00 0.00 78 1014.6
20260905115038 76 261 0.0 0.0 0.00 0.00 0.00 78 1014.4
20260905114532 76 261 0.0 1.0 0.00 0.00 0.00 78 1014.4
20260905114026 76 261 0.0 1.0 0.00 0.00 0.00 78 1014.3
20260905113014 76 261 0.0 1.0 0.00 0.00 0.00 78 1014.3
20260905112508 76 261 0.0 1.0 0.00 0.00 0.00 78 1014.2
20260905112002 76 261 0.0 1.0 0.00 0.00 0.00 77 1014.2
20260905111455 76 261 0.0 1.0 0.00 0.00 0.00 77 1014.1
20260905110950 76 261 0.0 1.0 0.00 0.00 0.00 77 1014.2
20260905110444 76 261 0.0 0.0 0.00 0.00 0.00 77 1014.3
20260905105937 76 261 0.0 1.0 0.00 0.00 0.00 77 1014.2
20260905105432 76 261 0.0 1.0 0.00 0.00 0.00 77 1014.1
20260905104925 76 261 0.0 0.0 0.00 0.00 0.00 77 1014.0
20260905104419 76 261 0.0 1.0 0.00 0.00 0.00 77 1014.0
20260905103913 76 261 0.0 1.0 0.00 0.00 0.00 77 1014.1
20260905103409 76 261 0.0 1.0 0.00 0.00 0.00 77 1014.2
20260905102910 76 261 0.0 1.0 0.00 0.00 0.00 77 1014.2
20260905102410 76 261 0.0 2.0 0.00 0.00 0.00 77 1014.0
20260905100409 76 315 0.0 1.0 0.00 0.00 0.00 77 1014.1
20260905095910 76 316 0.0 1.0 0.00 0.00 0.00 77 1014.2
20260905095409 76 316 0.0 1.0 0.00 0.00 0.00 77 1014.2
20260905094907 76 316 0.0 1.0 0.00 0.00 0.00 77 1014.2
20260905093905 76 130 0.0 0.0 0.00 0.00 0.00 77 1014.3
20260905093406 76 130 0.0 0.0 0.00 0.00 0.00 77 1014.2
20260905092905 76 130 0.0 0.0 0.00 0.00 0.00 77 1014.3
20260905092405 76 130 0.0 0.0 0.00 0.00 0.00 77 1014.4
20260905091401 76 130 0.0 0.0 0.00 0.00 0.00 77 1014.4
20260905090902 76 130 0.0 0.0 0.00 0.00 0.00 77 1014.3
20260905090402 76 130 0.0 0.0 0.00 0.00 0.00 77 1014.4
20260905085901 76 130 0.0 0.0 0.00 0.00 0.00 77 1014.5
20260905085402 76 130 0.0 0.0 0.00 0.00 0.00 78 1014.5
20260905084902 76 130 0.0 0.0 0.00 0.00 0.00 78 1014.4
20260905083901 76 130 0.0 0.0 0.00 0.00 0.00 78 1014.4
20260905083402 76 130 0.0 0.0 0.00 0.00 0.00 78 1014.3
20260905082902 76 130 0.0 0.0 0.00 0.00 0.00 77 1014.4
20260905082401 76 130 0.0 0.0 0.00 0.00 0.00 77 1014.6
20260905081901 77 130 0.0 0.0 0.00 0.00 0.00 77 1014.5
20260905081402 77 130 0.0 0.0 0.00 0.00 0.00 77 1014.5
20260905080401 77 130 0.0 0.0 0.00 0.00 0.00 76 1014.5
20260905075401 77 130 0.0 0.0 0.00 0.00 0.00 75 1014.6
20260905074852 77 130 0.0 0.0 0.00 0.00 0.00 75 1014.6
20260905074347 77 130 0.0 0.0 0.00 0.00 0.00 75 1014.5
20260905073840 77 130 0.0 0.0 0.00 0.00 0.00 74 1014.6
20260905072829 78 130 0.0 0.0 0.00 0.00 0.00 74 1014.6
20260905072323 78 130 0.0 0.0 0.00 0.00 0.00 74 1014.6
20260905071310 78 130 0.0 0.0 0.00 0.00 0.00 74 1014.5
20260905070805 78 130 0.0 0.0 0.00 0.00 0.00 74 1014.5
20260905070259 78 130 0.0 0.0 0.00 0.00 0.00 74 1014.5
20260905065753 78 130 0.0 0.0 0.00 0.00 0.00 74 1014.6
20260905065247 78 130 0.0 0.0 0.00 0.00 0.00 73 1014.5
20260905064234 78 130 0.0 0.0 0.00 0.00 0.00 73 1014.6
20260905063729 78 130 0.0 0.0 0.00 0.00 0.00 73 1014.7
20260905063223 78 130 0.0 0.0 0.00 0.00 0.00 73 1014.7
20260905062716 78 130 0.0 0.0 0.00 0.00 0.00 73 1014.7
20260905062211 78 130 0.0 0.0 0.00 0.00 0.00 73 1014.5
20260905061705 78 130 0.0 0.0 0.00 0.00 0.00 73 1014.5
20260905061159 79 130 0.0 0.0 0.00 0.00 0.00 73 1014.6
20260905060652 79 130 0.0 0.0 0.00 0.00 0.00 73 1014.7
20260905060146 79 130 0.0 0.0 0.00 0.00 0.00 72 1014.8
20260905055641 79 130 0.0 0.0 0.00 0.00 0.00 72 1014.8
20260905055135 79 130 0.0 0.0 0.00 0.00 0.00 72 1014.7
20260905054629 79 130 0.0 0.0 0.00 0.00 0.00 72 1014.7
20260905053617 79 130 0.0 0.0 0.00 0.00 0.00 71 1014.7
20260905052605 80 130 0.0 0.0 0.00 0.00 0.00 71 1014.6
20260905052058 80 130 0.0 0.0 0.00 0.00 0.00 71 1014.6
20260905051552 80 130 0.0 0.0 0.00 0.00 0.00 71 1014.5
20260905051046 80 130 0.0 0.0 0.00 0.00 0.00 71 1014.5
20260905045536 80 130 0.0 0.0 0.00 0.00 0.00 70 1014.5
20260905045034 80 130 0.0 0.0 0.00 0.00 0.00 70 1014.4
20260905044534 80 130 0.0 0.0 0.00 0.00 0.00 70 1014.4
20260905044034 80 130 0.0 0.0 0.00 0.00 0.00 69 1014.5
20260905043533 81 130 0.0 0.0 0.00 0.00 0.00 69 1014.5
20260905043034 81 130 0.0 0.0 0.00 0.00 0.00 69 1014.5
20260905042532 81 130 0.0 0.0 0.00 0.00 0.00 69 1014.5
20260905040528 82 130 0.0 0.0 0.00 0.00 0.00 68 1014.5
20260905040026 82 130 0.0 0.0 0.00 0.00 0.00 67 1014.4
20260905034024 83 130 0.0 0.0 0.00 0.00 0.00 66 1014.3
20260905033523 83 130 0.0 0.0 0.00 0.00 0.00 66 1014.3
20260905033024 83 130 0.0 0.0 0.00 0.00 0.00 66 1014.3
20260905032020 83 130 0.0 0.0 0.00 0.00 0.00 65 1014.2
20260905031519 83 130 0.0 0.0 0.00 0.00 0.00 65 1014.1
20260905031020 84 130 0.0 2.0 0.00 0.00 0.00 64 1014.2